[[{"header":{"parameterUnit":"m.s-1","parameterCategory":1,"la1":30.2992,"la2":30.254,"lo1":-89.0895,"lo2":-89.0443,"dy":0.0025,"dx":0.0025,"nx":19,"ny":19,"refTime":"2026-04-11T03:00:00:Z","depth":0,"parameterNumber":2,"parameterNumberName":"U-component_of_WINDS"},"data":[0,0,0,-4.7912,-4.7913,-4.7922,-4.7922,-4.797,-4.797,0,0,0,0,0,0,0,0,0,0,0,-4.793,-4.7931,-4.7912,-4.7913,-4.7922,-4.7922,-4.7969,-4.797,0,0,0,0,0,0,0,0,0,0,0,-4.7929,-4.7931,-4.7932,-4.7913,-4.7922,-4.7922,-4.7969,-4.795,0,0,0,0,0,0,0,0,0,0,-4.7935,-4.797,-4.793,-4.7932,-4.7913,-4.7922,-4.7922,-4.7948,-4.7951,-4.798,0,-4.8011,0,-4.7992,-4.7976,-4.7976,0,0,0,-4.7898,-4.7968,-4.7953,-4.7932,-4.7914,-4.7922,-4.7914,-4.7949,-4.7953,-4.7984,-4.8011,-4.8012,-4.7992,-4.7976,-4.7977,-4.8194,-4.8195,0,0,-4.7897,-4.7942,-4.7951,-4.7956,-4.7955,-4.7914,-4.7914,-4.7951,-4.7983,-4.8011,-4.8012,-4.7993,-4.7977,-4.7977,-4.8192,-4.8194,0,0,0,-4.7906,-4.7943,-4.7925,-4.7955,-4.7954,-4.7914,-4.7915,-4.7982,-4.7972,-4.8013,-4.7994,-4.7977,-4.7978,-4.819,-4.8193,-4.832,0,0,0,-4.7905,-4.7948,-4.7926,-4.7954,-4.7954,-4.7967,-4.7946,-4.797,-4.7972,-4.7993,-4.7977,-4.7979,-4.8188,-4.8192,-4.8313,-4.8373,0,0,0,-4.7922,-4.7949,-4.7958,-4.7956,-4.7961,-4.7966,-4.7958,-4.7969,-4.7962,-4.7976,-4.7979,-4.8187,-4.8191,-4.8306,-4.8361,-4.8442,0,0,0,-4.7954,-4.8071,-4.7961,-4.8085,-4.7962,-4.8045,-4.7957,-4.8017,-4.8045,-4.7978,-4.8188,-4.8193,-4.8304,-4.8354,-4.8435,-4.8518,-4.8556,0,0,-4.8127,-4.8094,-4.8163,-4.8064,-4.8179,-4.804,-4.8173,-4.8156,-4.8117,-4.8171,-4.8176,-4.8315,-4.836,-4.8441,-4.8762,-4.8793,0,0,0,-4.8233,-4.8284,-4.8304,-4.8333,-4.8323,-4.832,-4.8277,-4.8272,-4.8315,-4.8154,-4.8366,-4.8391,-4.8437,-4.8474,-4.85,-4.8536,-4.8212,-4.8212,-4.8211,-4.8541,-4.8485,-4.8597,-4.8543,-4.8572,-4.8528,-4.8547,-4.8532,-4.8466,-4.8518,-4.8533,-4.8734,-4.8779,-4.8799,-4.8837,-4.8573,-4.8574,-4.8574,-4.8574,-4.8788,-4.8851,-4.8763,-4.8839,-4.8781,-4.8845,-4.8809,-4.8761,-4.8813,-4.8718,-4.8755,-4.8654,-4.8835,-4.8865,-4.8583,-4.8582,-4.8581,-4.858,-4.8579,-4.8982,-4.9002,-4.8994,-4.903,-4.9065,-4.9008,-4.9062,-4.9006,-4.8955,-4.8992,-4.9001,-4.8999,-4.8989,-4.9001,-4.9001,-4.9002,-4.9003,-4.9003,-4.9004,-4.9185,-4.9172,-4.9223,-4.9225,-4.9237,-4.9246,-4.9207,-4.9217,-4.9215,-4.917,-4.917,-4.91,-4.8863,-4.8804,-4.9014,-4.9012,-4.9011,-4.901,-4.9009,-4.9453,-4.9384,-4.9464,-4.9477,-4.9475,-4.9515,-4.9445,-4.9472,-4.9473,-4.9502,-4.9425,-4.9259,-4.9221,-4.92,-4.915,-4.9437,-4.9437,-4.9437,-4.9437,-4.9615,-4.9592,-4.9661,-4.9685,-4.9702,-4.9648,-4.9742,-4.9714,-4.9674,-4.9671,-4.9623,-4.9553,-4.9534,-4.9507,-4.9479,-4.9431,-4.9783,-4.9784,-4.9784,-4.9777,-4.9752,-4.9842,-4.9801,-4.9797,-4.9795,-4.9882,-4.9914,-4.9854,-4.9797,-4.9668,-4.9654,-4.9541,-4.9507,-4.9444,-4.9401,-4.9313,0,0]},{"header":{"parameterUnit":"m.s-1","parameterCategory":1,"la1":30.2992,"la2":30.254,"lo1":-89.0895,"lo2":-89.0443,"dy":0.0025,"dx":0.0025,"nx":19,"ny":19,"refTime":"2026-04-11T03:00:00:Z","depth":0,"parameterNumber":3,"parameterNumberName":"V-component_of_WINDS"},"data":[0,0,0,2.7282,2.7283,2.7316,2.7316,2.7329,2.7329,0,0,0,0,0,0,0,0,0,0,0,2.7256,2.7256,2.7282,2.7283,2.7316,2.7316,2.7329,2.7329,0,0,0,0,0,0,0,0,0,0,0,2.7256,2.7256,2.7255,2.7283,2.7316,2.7316,2.7329,2.7314,0,0,0,0,0,0,0,0,0,0,2.7286,2.7247,2.7256,2.7255,2.7283,2.7316,2.7316,2.7313,2.7315,2.7301,0,2.7287,0,2.7308,2.7328,2.7328,0,0,0,2.7294,2.7245,2.727,2.7255,2.7283,2.7316,2.7304,2.7314,2.7316,2.7303,2.7288,2.7289,2.7308,2.7328,2.7327,2.722,2.7218,0,0,2.7292,2.7252,2.7269,2.727,2.7265,2.7303,2.7305,2.7316,2.7295,2.7288,2.729,2.7309,2.7327,2.7327,2.7221,2.7219,0,0,0,2.7279,2.725,2.7275,2.7269,2.7277,2.7304,2.7306,2.7295,2.7307,2.729,2.7309,2.7327,2.7327,2.7222,2.722,2.7131,0,0,0,2.7279,2.7243,2.7274,2.725,2.7276,2.7287,2.7284,2.7306,2.7308,2.7309,2.7327,2.7327,2.7223,2.7221,2.7136,2.7095,0,0,0,2.7259,2.7241,2.7241,2.7248,2.7261,2.7288,2.73,2.7307,2.7319,2.7328,2.7327,2.7224,2.7221,2.7141,2.7102,2.7055,0,0,0,2.7226,2.7159,2.7239,2.7171,2.7261,2.7234,2.7301,2.7282,2.7279,2.7327,2.7223,2.722,2.7142,2.7107,2.7059,2.7007,2.6982,0,0,2.712,2.7145,2.7109,2.7181,2.713,2.7232,2.7168,2.7201,2.7236,2.7222,2.722,2.7135,2.7103,2.7056,2.6858,2.6838,0,0,0,2.7061,2.7034,2.703,2.7027,2.7053,2.7071,2.7119,2.7132,2.7123,2.7222,2.7107,2.7089,2.7063,2.704,2.7022,2.7002,2.7208,2.7209,2.7209,2.6851,2.6904,2.6847,2.6903,2.6899,2.6951,2.6952,2.6978,2.7029,2.7001,2.6996,2.6871,2.6842,2.6829,2.6808,2.6975,2.6974,2.6974,2.6974,2.6698,2.6668,2.6742,2.6714,2.6769,2.6744,2.6792,2.683,2.6814,2.6878,2.6857,2.6921,2.6806,2.6789,2.6967,2.6969,2.6969,2.697,2.697,2.6564,2.6559,2.6579,2.6581,2.6577,2.6637,2.6619,2.667,2.6717,2.6697,2.6698,2.6699,2.6706,2.6694,2.6694,2.6693,2.6693,2.6693,2.6693,2.6417,2.6442,2.6423,2.6447,2.6453,2.6467,2.652,2.6526,2.6546,2.6584,2.6584,2.6637,2.6786,2.6821,2.6686,2.6687,2.6688,2.6689,2.6689,2.624,2.6289,2.6258,2.6264,2.6298,2.629,2.6357,2.6366,2.6379,2.6368,2.6428,2.653,2.6558,2.6572,2.6601,2.6418,2.6418,2.6418,2.6418,2.6126,2.6147,2.6128,2.6135,2.6147,2.6205,2.6167,2.6209,2.6258,2.6269,2.6304,2.6348,2.636,2.6381,2.6399,2.6427,2.6203,2.6203,2.6203,2.6019,2.6044,2.6003,2.6056,2.6087,2.6111,2.6077,2.608,2.6146,2.6195,2.6278,2.6287,2.6359,2.638,2.6427,2.6454,2.6507,0,0]}]]